Location: Unspecified
(0.0000°N, 0.0000°E)
Time: 12:54:20
(UTC+00:00)

S-56A Canister/Altair - Pass Details

Date: 02 December 2023
Orbit: 640 x 2488 km, 38.9° (Epoch: 24 February)

Event Time Altitude Azimuth Distance (km) Brightness Sun altitude
Rises 19:22:12 0° 326° (NW) 4,098 11.4 -21.4°
Reaches altitude 10° 19:24:46 10° 332° (NNW) 3,353 10.8 -22.0°
Maximum altitude 19:33:13 49° 45° (NE) 2,156 9.3 -23.9°
Enters shadow 19:39:40 28° 102° (ESE) 3,278 10.2 -25.4°
